Springfield, NE (68059)

4:20 PM CDT on September 19, 2019 (GMT -0500)
Project Raven | | Change Station
Active Advisory: Flood Warning

Elev 1158 ft 41.12 °N, 96.15 °W | Updated 4 minutes ago

Clear
Clear
86.9 °F
Feels Like 94 °F
N
14
Wind Variable Wind from SSE
Gusts 17.0 mph

Today
High -- | Low -- °F
--% Chance of Precip.
Yesterday
High -- | Low -- °F
Precip. -- in
Pressure 29.94 in
Visibility 10.0 miles
Clouds Clear
Heat Index 94 °F
Dew Point 73 °F
Humidity 63%
Rainfall 0.92 in
Snow Depth Not available.
7:08 AM 7:27 PM
Waning Gibbous, 72% visible
METAR KMLE 192055Z AUTO 18007KT 10SM CLR 32/22 A2994 RMK AO2 T03190219
Pressure 29.94 in
Visibility 10.0 miles
Clouds Clear
Heat Index 94 °F
Dew Point 73 °F
Humidity 63%
Rainfall 0.92 in
Snow Depth Not available.
7:08 AM 7:27 PM
Waning Gibbous, 72% visible
METAR KMLE 192055Z AUTO 18007KT 10SM CLR 32/22 A2994 RMK AO2 T03190219

Get Your Daily Forecast Email!

Thanks for signing up!

Be on the lookout for a verification email in your inbox.

You'll start receiving severe weather alerts in your inbox..

×

10-Day Weather Forecast

Almanac

Astronomy

Sep. 19, 2019 Rise Set
Actual Time
Civil Twilight
Nautical Twilight
Astronomical Twilight
Moon
Length of Visible Light
Length of Day
Tomorrow will be .
, % of the Moon is Illuminated

Today's Extremes

State Highs State Lows

Community

WunderPhotos

Category 6

Welcome to Category 6. This is the collective home for Weather Underground's featured writeups by Dr. Jeff Masters (right), Bob Henson (left), Chris Burt, and other regular contributors.

Nearby

Air Quality

  Air Quality AQ Index Pollutant
Not available.

Snow Depth

Station Depth Elevation

Earthquake Activity

City Distance Mag. Time & Date
Minimum magnitude displayed is 2.5.

Coastal Water Temperatures

Place Temperature

Stations

Nearby Weather Stations

Station Location Temp. Windchill Dew Point Humidity Wind Precip. Elev Updated Type
                   

Watches & Warnings

Flood Warning
Issued: 10:15 AM CDT Sep. 19, 2019 – National Weather Service

The Flood Warning continues for
the Missouri River at Omaha.
* At 10:00 am Thursday the stage was 29.7 feet... or 0.7 feet above
flood stage.
* Flood stage is 29.0 feet.
* Minor flooding is occurring and minor flooding is forecast.
* Forecast... the river will continue rising to near 30.7 feet by
early Saturday morning. The river will fall below flood stage by
Wednesday morning.



Lat... Lon 4142 9602 4142 9583 4107 9574 4106 9591
      4132 9595